Weather Roundup
Issued by NWS

Home | Current Version | Previous Version | Graphics & Text | Print | Product List | Glossary Off
Versions: 1 2 3 4 5 6 7 8 9 10 11 12 13 14 15 16 17 18 19 20 21 22 23 24 25 26 27 28 29 30 31 32 33 34 35 36 37 38 39 40 41 42 43 44 45 46 47 48 49 50

000
NZUS93 KARX 290859
HRRWXR

CURRENT HOURLY OBSERVATIONS ACROSS
MUCH OF THE UPPER MISSISSIPPI VALLEY
NATIONAL WEATHER SERVICE LA CROSSE WI
400 AM CDT SUN MAY 29 2016


...SOUTHEAST MINNESOTA...


CITY           SKY/WX    TMP DP  RH WIND       PRES   REMARKS
ROCHESTER      MOCLDY    61  60  97 W9        29.87S
ROCHESTER/MAYO CLOUDY    61  61 100 W6        29.86S
WINONA         LGT RAIN  63  59  88 W5        29.83S
AUSTIN         CLOUDY    61  57  88 W6        29.88R
ALBERT LEA     PTCLDY    61  61 100 W5        29.90R
DODGE CENTER   CLOUDY    59  57  94 W7        29.87R FOG
PRESTON        CLOUDY    61  59  92 W10       29.87R
OWATONNA       CLOUDY    61  57  88 W7        29.88R
FARIBAULT      CLOUDY    61  61 100 W5        29.86S
$$

...ELSEWHERE IN MINNESOTA...


CITY           SKY/WX    TMP DP  RH WIND       PRES   REMARKS
MINNEAPOLIS    CLOUDY    62  59  90 W5        29.84S
INTNL FALLS    FOG       56  56 100 NW3       29.78F VSB 1/4
DULUTH         LGT RAIN  57  55  93 W5        29.79S FOG
RED WING       CLOUDY    63  61  94 W3        29.83S FOG
REDWOOD FALLS  CLOUDY    61  57  87 W12       29.90R
MANKATO        MOCLDY    61  57  88 W8        29.89R
WORTHINGTON    MOCLDY    57  57 100 W10       29.95S FOG
FAIRMONT       CLEAR     59  55  88 W7        29.92R
$$

...SOUTHWEST WISCONSIN...


CITY           SKY/WX    TMP DP  RH WIND       PRES   REMARKS
LA CROSSE      CLOUDY    64  60  87 S7        29.82F
PRAIRIE DU CHI CLOUDY    64  58  80 SW7       29.85S
BOSCOBEL       CLOUDY    64  61  90 W3        29.85F
LONE ROCK      NOT AVBL
PLATTEVILLE    PTCLDY    63  61  92 SW10      29.89S
FORT MC COY    MOCLDY    62  61  96 CALM      29.84F
MAUSTON-NEW LI CLOUDY    64  61  90 SW6       29.84S
VIROQUA        CLOUDY    62  60  94 S7        29.86S
WIS DELLS      CLEAR     62  58  86 SW7       29.87S
$$

...ELSEWHERE IN WISCONSIN...


CITY           SKY/WX    TMP DP  RH WIND       PRES   REMARKS
MILWAUKEE      PTCLDY    64  62  93 S8        29.91S
MADISON        CLEAR     65  59  81 VRB5      29.87F
GREEN BAY      CLOUDY    65  62  90 S7        29.85S
EAU CLAIRE     RAIN      60  60 100 SW5       29.81F FOG
BLACK RVR FLS  FOG       55  55 100 CALM      29.82F VSB<1/4
MEDFORD        CLEAR     58  58 100 SW6       29.83S
WAUSAU         CLOUDY    65  61  87 SW9       29.82S
WIS RAPIDS     CLOUDY    64  60  87 VRB6      29.85S
MARSHFIELD     CLOUDY    62  60  93 SW6       29.83S
RICE LAKE      CLOUDY    61  59  94 CALM      29.83S
$$

...NORTHEAST IOWA...


CITY           SKY/WX    TMP DP  RH WIND       PRES   REMARKS
WATERLOO       CLOUDY    62  59  90 W8        29.89R
DUBUQUE        CLEAR     62  58  86 SW12      29.89F
DECORAH        CLOUDY    61  61 100 VRB5      29.85S
MASON CITY     CLOUDY    61  60  97 W13       29.93R
CHARLES CITY   CLOUDY    63  63 100 W9        29.89R
OELWEIN        CLOUDY    63  61  94 W9        29.89S
$$

...ELSEWHERE IN IOWA...


CITY           SKY/WX    TMP DP  RH WIND       PRES   REMARKS
DES MOINES     CLEAR     60  55  83 W5        29.97R
IOWA CITY      CLEAR     63  59  87 SW7       29.94S
FORT DODGE     MOCLDY    61  55  82 W6        29.96R
MARSHALLTOWN   CLOUDY    62  61  96 W12       29.93R
CEDAR RAPIDS   CLEAR     63  60  90 SW13      29.91S
$$

...NORTHERN ILLINOIS...


CITY           SKY/WX    TMP DP  RH WIND       PRES   REMARKS
CHICAGO-OHARE  MOCLDY    64  61  90 SW5       29.95R
CHICAGO-MIDWAY MOCLDY    66  58  75 SW9       29.95S
MOLINE         CLEAR     67  58  72 SW10G18   29.93S
ROCKFORD       PTCLDY    65  61  87 S9        29.94F
PEORIA         CLEAR     63  61  93 S6        29.99R
$$

NOTE: "FAIR" INDICATES FEW OR NO CLOUDS BELOW 12,000 FEET WITH NO
SIGNIFICANT WEATHER AND/OR OBSTRUCTIONS TO VISIBILITY. WIND
SPEEDS ARE IN MILES-PER-HOUR.




USA.gov is the U.S. government's official web portal to all federal, state and local government web resources and services.